Location: Lhota
(50.0887°N, 14.0116°E)
Time: 06:58:39
(UTC+00:00)

Cosmos 2219 Rocket - Pass Details

Date: 19 May 2025
Orbit: 828 x 844 km, 71.0° (Epoch: 22 June)

Event Time Altitude Azimuth Distance (km) Brightness Sun altitude
Rises 22:20:22 0° 333° (NNW) 3,400 6.7 -19.4°
Reaches altitude 10° 22:22:59 10° 340° (NNW) 2,460 5.8 -19.4°
Maximum altitude 22:28:17 41° 50° (NE) 1,205 3.2 -19.6°
Enters shadow 22:32:30 15° 115° (ESE) 2,081 3.9 -19.7°
